Time[GMT],significant_wave_height[m](0m),dominant_wave_period[s](0m)
2021-06-15 21:00, 0.96,10.7
2021-06-15 22:00, 0.87,10.7
2021-06-15 23:00, 0.87,10.7
2021-06-16 00:00, 0.88,8.0
2021-06-16 01:00, 0.93,8.0
2021-06-16 02:00, 0.83,8.0
2021-06-16 03:00, 0.89,8.0
2021-06-16 04:00, 0.89,8.0
2021-06-16 05:00, 0.90,8.0
2021-06-16 06:00, 0.91,8.0
2021-06-16 07:00, 0.93,8.0
2021-06-16 08:00, 1.07,6.4
2021-06-16 09:00, 1.09,10.7
2021-06-16 10:00,,
2021-06-16 11:00, 1.27,10.7
2021-06-16 12:00, 1.17,10.7
2021-06-16 13:00, 1.21,8.0
2021-06-16 14:00, 1.17,8.0
2021-06-16 15:00, 1.07,8.0
2021-06-16 16:00, 1.20,8.0
2021-06-16 17:00, 1.40,10.7
2021-06-16 18:00, 1.34,10.7
2021-06-16 19:00, 1.13,8.0
2021-06-16 20:00, 1.03,8.0
2021-06-16 21:00, 1.05,8.0
2021-06-16 22:00, 1.01,8.0
2021-06-16 23:00, 1.07,8.0
2021-06-17 00:00, 1.00,8.0
2021-06-17 01:00, 1.11,8.0
2021-06-17 02:00, 1.01,8.0
2021-06-17 03:00, 1.02,8.0
2021-06-17 04:00, 1.15,8.0
2021-06-17 05:00, 1.12,8.0
2021-06-17 06:00, 1.05,8.0
2021-06-17 07:00, 1.12,8.0
2021-06-17 08:00, 1.03,8.0
2021-06-17 09:00, 1.09,8.0
2021-06-17 10:00, 0.96,8.0
2021-06-17 11:00, 0.85,8.0
2021-06-17 12:00, 0.38,3.2
2021-06-17 13:00, 1.12,10.7
2021-06-17 14:00, 1.15,8.0
2021-06-17 15:00, 1.17,8.0
2021-06-17 16:00, 1.15,8.0
2021-06-17 17:00, 1.16,8.0
2021-06-17 18:00, 1.25,8.0
2021-06-17 19:00, 1.31,10.7
2021-06-17 20:00, 1.27,8.0
2021-06-17 21:00,,
2021-06-17 22:00, 1.17,10.7
2021-06-17 23:00, 1.29,10.7
2021-06-18 00:00, 1.36,8.0
2021-06-18 01:00, 1.08,8.0
2021-06-18 02:00, 1.05,8.0
2021-06-18 03:00, 1.15,8.0
2021-06-18 04:00, 1.03,8.0
2021-06-18 05:00, 1.22,8.0
2021-06-18 06:00, 1.24,8.0
2021-06-18 07:00, 1.11,8.0
2021-06-18 08:00, 1.11,8.0
2021-06-18 09:00, 0.97,8.0
2021-06-18 10:00, 0.90,10.7
2021-06-18 11:00, 0.93,10.7
2021-06-18 12:00, 0.96,8.0
2021-06-18 13:00, 0.98,10.7
2021-06-18 14:00, 0.90,10.7
2021-06-18 15:00, 0.99,8.0
2021-06-18 16:00, 0.94,8.0
2021-06-18 17:00, 0.93,8.0
2021-06-18 18:00, 0.96,8.0
2021-06-18 19:00, 0.94,8.0
2021-06-18 20:00, 0.85,8.0
2021-06-18 21:00, 0.78,8.0
2021-06-18 22:00, 0.82,8.0
2021-06-18 23:00, 0.51,3.2
2021-06-19 00:00, 0.70,3.6
2021-06-19 01:00, 1.05,4.0
2021-06-19 02:00, 1.07,4.6
2021-06-19 03:00, 1.07,4.6
2021-06-19 04:00, 1.24,4.6
2021-06-19 05:00, 1.24,4.6
2021-06-19 06:00, 1.25,4.6
2021-06-19 07:00, 1.30,4.6
2021-06-19 08:00, 1.37,5.3
2021-06-19 09:00, 1.41,5.3
2021-06-19 10:00, 1.40,6.4
2021-06-19 11:00, 1.46,5.3
2021-06-19 12:00, 1.48,6.4
2021-06-19 13:00, 1.35,6.4
2021-06-19 14:00, 1.69,6.4
2021-06-19 15:00,,
2021-06-19 16:00, 1.80,6.4
2021-06-19 17:00, 1.49,6.4
2021-06-19 18:00, 1.46,6.4
2021-06-19 19:00, 1.52,6.4
2021-06-19 20:00, 1.39,6.4
2021-06-19 21:00, 1.34,6.4
2021-06-19 22:00, 1.28,6.4
2021-06-19 23:00, 1.18,6.4
2021-06-20 00:00, 1.16,6.4
2021-06-20 02:00, 1.11,6.4
2021-06-20 03:00, 1.07,6.4
2021-06-20 04:00, 1.00,6.4
2021-06-20 05:00, 1.04,6.4
2021-06-20 06:00, 0.99,6.4
2021-06-20 07:00, 0.98,8.0
2021-06-20 08:00, 0.94,6.4
2021-06-20 09:00, 0.96,8.0
2021-06-20 10:00,,
2021-06-20 11:00, 0.98,6.4
2021-06-20 12:00, 0.95,8.0
2021-06-20 13:00, 0.92,6.4
2021-06-20 14:00, 0.87,6.4
2021-06-20 15:00, 0.86,8.0
2021-06-20 16:00, 0.84,8.0
2021-06-20 17:00, 0.83,8.0
2021-06-20 18:00, 0.84,8.0
2021-06-20 19:00, 0.90,6.4
2021-06-20 20:00, 0.86,8.0
2021-06-20 21:00, 0.93,6.4
2021-06-20 22:00, 1.02,8.0
2021-06-20 23:00, 0.92,8.0
2021-06-21 00:00, 0.93,8.0
2021-06-21 01:00, 0.96,8.0
2021-06-21 02:00, 1.00,8.0
2021-06-21 03:00, 0.90,8.0
2021-06-21 04:00, 0.86,8.0
2021-06-21 05:00, 0.89,8.0
2021-06-21 06:00, 0.89,8.0
2021-06-21 07:00, 0.98,8.0
2021-06-21 08:00, 0.96,8.0
2021-06-21 09:00, 0.99,8.0
2021-06-21 10:00, 1.07,8.0
2021-06-21 11:00, 1.14,8.0
2021-06-21 12:00, 0.94,8.0
2021-06-21 13:00, 0.91,8.0
2021-06-21 14:00, 0.76,5.3
2021-06-21 15:00, 0.86,8.0
2021-06-21 16:00, 0.94,8.0
2021-06-21 17:00, 1.08,8.0
2021-06-21 18:00, 1.13,8.0
2021-06-21 19:00, 1.30,4.6
2021-06-21 20:00, 1.34,8.0
2021-06-21 21:00, 1.23,8.0
2021-06-21 22:00, 1.40,4.6
2021-06-21 23:00, 1.65,5.3
2021-06-22 00:00, 1.70,5.3
2021-06-22 01:00, 1.69,6.4
2021-06-22 02:00, 1.72,6.4
2021-06-22 03:00, 1.63,6.4
2021-06-22 04:00, 1.70,6.4
2021-06-22 05:00, 1.57,6.4
2021-06-22 06:00, 1.62,6.4
2021-06-22 07:00, 1.42,6.4
2021-06-22 08:00, 1.39,5.3
2021-06-22 09:00, 1.56,5.3
2021-06-22 10:00,,
2021-06-22 11:00, 1.31,5.3
2021-06-22 12:00, 1.28,5.3
2021-06-22 13:00, 1.14,5.3
2021-06-22 14:00, 1.05,5.3
2021-06-22 15:00, 1.00,6.4
2021-06-22 16:00, 0.98,4.6
2021-06-22 17:00, 0.88,5.3
2021-06-22 18:00, 0.89,8.0
2021-06-22 19:00, 0.86,8.0
2021-06-22 20:00, 0.74,8.0
2021-06-22 21:00, 0.71,6.4
2021-06-22 22:00, 0.70,6.4
2021-06-22 23:00, 0.74,6.4
2021-06-23 00:00, 0.72,6.4
2021-06-23 01:00, 0.85,8.0
2021-06-23 02:00, 1.06,8.0
2021-06-23 03:00, 0.45,2.7
2021-06-23 04:00, 1.33,10.7
2021-06-23 05:00, 1.55,10.7
2021-06-23 06:00, 1.47,10.7
2021-06-23 07:00, 1.41,10.7
2021-06-23 08:00, 1.30,10.7
2021-06-23 09:00, 1.34,10.7
2021-06-23 10:00, 1.11,8.0
2021-06-23 11:00, 1.04,8.0
2021-06-23 12:00, 0.55,3.2
2021-06-23 13:00, 0.47,2.9
2021-06-23 14:00,,
2021-06-23 15:00, 0.35,2.9
2021-06-23 16:00, 0.32,2.5
2021-06-23 17:00, 0.97,10.7
2021-06-23 18:00,,
2021-06-23 19:00, 0.83,8.0
2021-06-23 20:00, 0.52,2.7
2021-06-23 21:00, 0.76,3.6
2021-06-23 22:00, 1.11,8.0
2021-06-23 23:00, 1.23,8.0
2021-06-24 00:00, 1.18,8.0
2021-06-24 01:00, 1.10,8.0
2021-06-24 02:00, 1.03,8.0
2021-06-24 03:00, 1.13,10.7
2021-06-24 04:00, 0.50,4.0
2021-06-24 05:00, 0.49,4.0
2021-06-24 06:00, 1.15,10.7
2021-06-24 07:00, 0.99,10.7
2021-06-24 08:00, 0.88,8.0
2021-06-24 09:00, 1.08,8.0
2021-06-24 10:00, 1.06,8.0
2021-06-24 11:00, 0.86,8.0
2021-06-24 12:00, 0.93,8.0
2021-06-24 13:00, 0.93,8.0
2021-06-24 14:00, 0.82,8.0
2021-06-24 15:00, 0.76,8.0
2021-06-24 16:00, 0.84,10.7
2021-06-24 17:00, 0.56,6.4
2021-06-24 18:00, 0.17,2.5
2021-06-24 19:00, 0.66,8.0
2021-06-24 20:00, 0.66,8.0
2021-06-24 21:00, 0.63,8.0
2021-06-24 22:00, 0.61,8.0
2021-06-24 23:00, 0.62,8.0
2021-06-25 00:00, 0.69,8.0
2021-06-25 01:00, 0.67,6.4
2021-06-25 02:00, 0.70,6.4
2021-06-25 03:00, 0.66,6.4
2021-06-25 04:00, 0.62,6.4
2021-06-25 05:00, 0.58,5.3
2021-06-25 06:00, 0.52,3.6
2021-06-25 07:00, 0.44,5.3
2021-06-25 08:00, 0.43,3.6
2021-06-25 09:00, 0.41,3.6
2021-06-25 10:00, 0.42,3.6
2021-06-25 11:00, 0.53,8.0
2021-06-25 12:00, 0.58,8.0
2021-06-25 13:00, 0.56,8.0
2021-06-25 14:00, 0.57,6.4
2021-06-25 15:00, 0.47,4.0
2021-06-25 16:00, 0.62,6.4
2021-06-25 17:00, 0.55,2.5
2021-06-25 18:00, 0.50,4.0
2021-06-25 19:00, 0.58,4.0
2021-06-25 20:00, 0.55,4.6
2021-06-25 21:00, 0.56,4.6
2021-06-25 22:00, 0.53,4.6
2021-06-25 23:00, 0.60,4.6
2021-06-26 00:00, 0.63,8.0
2021-06-26 01:00, 0.65,4.6
2021-06-26 02:00, 0.67,6.4
2021-06-26 03:00, 0.72,6.4
2021-06-26 04:00, 0.73,6.4
2021-06-26 05:00, 0.73,6.4
2021-06-26 06:00, 0.75,6.4
2021-06-26 07:00, 0.76,6.4
2021-06-26 08:00, 0.68,4.6
2021-06-26 09:00, 0.67,4.0
2021-06-26 10:00, 0.64,6.4
2021-06-26 11:00, 0.75,4.6
2021-06-26 12:00, 0.72,4.6
2021-06-26 13:00, 0.85,4.6
2021-06-26 14:00, 0.94,4.6
2021-06-26 15:00, 0.83,4.6
2021-06-26 16:00, 0.75,4.6
2021-06-26 17:00, 0.73,5.3
2021-06-26 18:00, 0.63,6.4
2021-06-26 19:00, 0.67,5.3
2021-06-26 20:00, 0.71,6.4
2021-06-26 21:00, 0.89,4.6
2021-06-26 22:00, 1.07,4.6
2021-06-26 23:00, 1.36,5.3
2021-06-27 00:00, 1.32,5.3
2021-06-27 01:00, 1.39,5.3
2021-06-27 02:00, 1.40,5.3
2021-06-27 03:00, 1.39,5.3
2021-06-27 04:00, 1.48,5.3
2021-06-27 05:00,,
2021-06-27 06:00, 1.48,6.4
2021-06-27 07:00, 1.44,5.3
2021-06-27 08:00, 1.55,5.3
2021-06-27 09:00, 1.40,6.4
2021-06-27 10:00, 1.33,5.3
2021-06-27 11:00, 1.27,5.3
2021-06-27 12:00, 1.45,5.3
2021-06-27 13:00, 1.52,5.3
2021-06-27 14:00, 1.44,5.3
2021-06-27 15:00, 1.59,5.3
2021-06-27 16:00, 1.48,6.4
2021-06-27 17:00, 1.53,5.3
2021-06-27 18:00, 1.32,5.3
2021-06-27 19:00, 1.37,6.4
2021-06-27 20:00, 1.50,6.4
2021-06-27 21:00, 1.67,6.4
2021-06-27 22:00,,
2021-06-27 23:00, 1.54,6.4
2021-06-28 00:00, 1.54,6.4
2021-06-28 01:00, 1.61,6.4
2021-06-28 02:00, 1.69,6.4
2021-06-28 03:00, 1.74,6.4
2021-06-28 04:00, 1.59,6.4
2021-06-28 05:00, 1.60,6.4
2021-06-28 06:00, 1.44,6.4
2021-06-28 07:00,,
2021-06-28 08:00, 1.37,6.4
2021-06-28 09:00, 1.36,6.4
2021-06-28 10:00, 1.43,6.4
2021-06-28 11:00, 1.24,6.4
2021-06-28 12:00, 1.27,6.4
2021-06-28 13:00, 1.16,6.4
2021-06-28 14:00, 1.19,6.4
2021-06-28 15:00, 1.14,5.3
2021-06-28 16:00, 1.22,6.4
2021-06-28 17:00, 1.15,6.4
2021-06-28 18:00, 1.03,6.4
2021-06-28 19:00, 1.01,6.4
2021-06-28 20:00, 0.95,5.3
2021-06-28 21:00, 0.96,5.3
2021-06-28 22:00, 0.91,5.3
2021-06-28 23:00, 0.84,5.3
2021-06-29 00:00, 0.88,5.3
2021-06-29 01:00, 0.90,4.6
2021-06-29 02:00, 0.87,5.3
2021-06-29 03:00, 0.92,4.6
2021-06-29 04:00, 0.86,5.3
2021-06-29 05:00, 0.85,5.3
2021-06-29 06:00, 0.89,5.3
2021-06-29 07:00, 0.93,5.3
2021-06-29 08:00, 0.84,5.3
2021-06-29 09:00, 0.91,5.3
2021-06-29 10:00, 0.86,5.3
2021-06-29 11:00, 0.85,5.3
2021-06-29 12:00, 0.82,5.3
2021-06-29 13:00, 0.77,5.3
2021-06-29 14:00, 0.74,5.3
2021-06-29 15:00, 0.77,5.3
2021-06-29 16:00, 0.71,5.3
2021-06-29 17:00, 0.74,5.3
2021-06-29 18:00, 0.65,5.3
2021-06-29 19:00, 0.65,6.4
2021-06-29 20:00, 0.67,6.4
2021-06-29 21:00, 0.63,5.3
2021-06-29 22:00, 0.62,5.3
2021-06-29 23:00, 0.58,5.3
2021-06-30 00:00, 0.58,5.3
2021-06-30 01:00, 0.57,5.3
2021-06-30 02:00, 0.56,8.0
2021-06-30 03:00, 0.53,5.3
2021-06-30 04:00, 0.53,8.0
2021-06-30 05:00, 0.53,8.0
2021-06-30 06:00, 0.51,6.4
2021-06-30 07:00, 0.51,6.4
2021-06-30 08:00, 0.49,6.4
2021-06-30 09:00, 0.52,6.4
2021-06-30 10:00, 0.47,5.3
2021-06-30 11:00, 0.44,6.4
2021-06-30 12:00, 0.50,5.3
2021-06-30 13:00, 0.49,5.3
2021-06-30 14:00, 0.53,5.3
2021-06-30 15:00, 0.58,5.3
2021-06-30 16:00, 0.60,4.6
2021-06-30 17:00, 0.58,4.6
2021-06-30 18:00, 0.58,6.4
2021-06-30 19:00, 0.55,5.3
2021-06-30 20:00, 0.57,5.3
2021-06-30 21:00, 0.56,5.3
2021-06-30 22:00, 0.56,5.3
2021-06-30 23:00, 0.78,3.6
2021-07-01 00:00, 0.84,4.0
2021-07-01 01:00, 0.81,4.0
2021-07-01 02:00,,
2021-07-01 03:00, 0.81,3.6
2021-07-01 04:00, 0.89,4.0
2021-07-01 05:00, 0.99,4.0
2021-07-01 06:00, 0.78,4.0
2021-07-01 07:00, 0.92,4.6
2021-07-01 08:00, 0.94,4.6
2021-07-01 09:00, 0.95,4.6
2021-07-01 10:00, 0.88,5.3
2021-07-01 11:00,,
2021-07-01 12:00, 0.91,5.3
2021-07-01 13:00, 0.85,5.3
2021-07-01 14:00, 0.79,5.3
2021-07-01 15:00, 0.81,5.3
2021-07-01 16:00, 0.69,5.3
2021-07-01 17:00, 0.60,4.6
2021-07-01 18:00, 0.54,4.0
2021-07-01 19:00, 0.53,5.3
2021-07-01 20:00, 0.56,5.3
2021-07-01 21:00, 0.52,6.4
2021-07-01 22:00, 0.54,5.3
2021-07-01 23:00, 0.56,5.3
2021-07-02 00:00, 0.56,5.3
2021-07-02 01:00, 0.56,6.4
2021-07-02 02:00, 0.51,5.3
2021-07-02 03:00, 0.54,6.4
2021-07-02 04:00, 0.50,6.4
2021-07-02 05:00, 0.51,6.4
2021-07-02 06:00, 0.94,3.2
2021-07-02 07:00, 1.26,4.0
2021-07-02 08:00, 1.44,4.6
2021-07-02 09:00, 1.56,5.3
2021-07-02 10:00, 1.55,5.3
2021-07-02 11:00, 1.66,5.3
2021-07-02 12:00, 1.69,6.4
2021-07-02 13:00, 1.76,5.3
2021-07-02 14:00, 1.97,6.4
2021-07-02 15:00, 1.89,6.4
2021-07-02 16:00, 1.87,6.4
2021-07-02 17:00,,
2021-07-02 18:00, 1.56,6.4
2021-07-02 19:00, 1.69,6.4
2021-07-02 20:00, 1.52,6.4
2021-07-02 21:00, 1.41,6.4
2021-07-02 22:00, 1.30,6.4
2021-07-02 23:00, 1.22,6.4
2021-07-03 00:00, 1.06,6.4
2021-07-03 01:00, 1.05,6.4
2021-07-03 02:00, 0.93,6.4
2021-07-03 03:00, 0.93,6.4
2021-07-03 04:00, 0.93,6.4
2021-07-03 05:00,,
2021-07-03 06:00, 0.95,8.0
2021-07-03 07:00, 1.08,8.0
2021-07-03 08:00, 1.14,8.0
2021-07-03 09:00, 1.18,8.0
2021-07-03 10:00, 1.24,6.4
2021-07-03 11:00, 1.18,8.0
2021-07-03 13:00, 1.18,6.4
2021-07-03 14:00, 1.31,6.4
2021-07-03 15:00, 1.18,6.4
2021-07-03 16:00, 1.19,6.4
2021-07-03 17:00, 1.22,8.0
2021-07-03 18:00, 1.24,8.0
2021-07-03 19:00, 1.39,8.0
2021-07-03 20:00, 1.20,8.0
2021-07-03 21:00, 1.24,8.0
2021-07-03 22:00, 1.25,6.4
2021-07-03 23:00, 1.19,6.4
2021-07-04 00:00, 1.22,6.4
2021-07-04 01:00, 1.25,6.4
2021-07-04 02:00, 1.16,6.4
2021-07-04 03:00, 1.31,8.0
2021-07-04 04:00, 1.37,8.0
2021-07-04 05:00, 1.47,8.0
2021-07-04 06:00, 1.41,8.0
2021-07-04 07:00, 1.35,8.0
2021-07-04 08:00, 1.47,8.0
2021-07-04 09:00, 1.31,8.0
2021-07-04 10:00, 1.53,8.0
2021-07-04 11:00, 1.28,8.0
2021-07-04 12:00, 1.26,10.7
2021-07-04 13:00,,
2021-07-04 14:00,,
2021-07-04 15:00, 1.18,8.0
2021-07-04 16:00, 1.29,8.0
2021-07-04 17:00, 1.41,10.7
2021-07-04 18:00, 1.15,8.0
2021-07-04 19:00, 1.28,8.0
2021-07-04 20:00, 1.25,8.0
2021-07-04 21:00, 1.31,8.0
2021-07-04 22:00, 1.31,8.0
2021-07-04 23:00,,
2021-07-05 00:00, 1.27,10.7
2021-07-05 01:00, 1.17,10.7
2021-07-05 02:00, 1.14,10.7
2021-07-05 03:00, 1.09,10.7
2021-07-05 04:00, 1.16,10.7
2021-07-05 05:00, 1.13,10.7
2021-07-05 06:00, 1.06,10.7
2021-07-05 07:00, 1.06,10.7
2021-07-05 08:00, 0.94,10.7
2021-07-05 09:00, 1.11,10.7
2021-07-05 10:00, 0.93,10.7
2021-07-05 11:00, 0.94,10.7
2021-07-05 12:00, 1.07,10.7
2021-07-05 13:00, 1.10,10.7
2021-07-05 14:00, 0.93,10.7
2021-07-05 15:00, 0.90,10.7
2021-07-05 16:00, 1.08,10.7
2021-07-05 17:00, 0.96,10.7
2021-07-05 18:00, 0.88,8.0
2021-07-05 19:00, 0.93,10.7
2021-07-05 20:00, 0.96,10.7
2021-07-05 21:00, 1.04,8.0
2021-07-05 22:00, 0.58,3.6
2021-07-05 23:00, 0.75,3.6
2021-07-06 00:00, 0.90,4.0
2021-07-06 01:00, 0.82,4.6
2021-07-06 02:00, 0.86,4.6
2021-07-06 03:00, 0.96,4.6
2021-07-06 04:00,,
2021-07-06 05:00, 1.25,4.6
2021-07-06 06:00, 1.28,4.6
2021-07-06 07:00, 1.32,4.6
2021-07-06 08:00, 1.29,5.3
2021-07-06 09:00, 1.29,8.0
2021-07-06 10:00, 1.18,8.0
2021-07-06 11:00, 1.00,8.0
2021-07-06 12:00, 0.73,5.3
2021-07-06 13:00, 1.03,5.3
2021-07-06 14:00, 0.96,4.6
2021-07-06 15:00, 0.95,4.6
2021-07-06 16:00, 0.96,5.3
2021-07-06 17:00, 0.96,5.3
2021-07-06 18:00, 1.13,5.3
2021-07-06 19:00, 1.17,5.3
2021-07-06 20:00, 1.17,5.3
2021-07-06 21:00, 1.13,8.0
2021-07-06 22:00, 1.13,8.0
2021-07-06 23:00, 1.13,8.0
2021-07-07 00:00, 1.15,8.0
2021-07-07 01:00, 1.16,6.4
2021-07-07 02:00, 1.14,6.4
2021-07-07 03:00, 1.15,6.4
2021-07-07 04:00, 1.28,6.4
2021-07-07 05:00, 1.20,6.4
2021-07-07 06:00, 1.23,6.4
2021-07-07 07:00, 1.15,6.4
2021-07-07 08:00, 1.22,8.0
2021-07-07 09:00, 1.12,8.0
2021-07-07 10:00, 1.35,8.0
2021-07-07 11:00, 1.26,8.0
2021-07-07 12:00, 1.19,8.0
2021-07-07 13:00, 1.14,8.0
2021-07-07 14:00, 1.25,6.4
2021-07-07 15:00, 1.05,6.4
2021-07-07 16:00,,
2021-07-07 17:00, 0.92,6.4
2021-07-07 18:00, 1.01,6.4
2021-07-07 19:00, 0.92,8.0
2021-07-07 20:00, 0.92,8.0
2021-07-07 21:00, 0.94,8.0
2021-07-07 22:00, 0.96,8.0
2021-07-07 23:00, 0.99,8.0
2021-07-08 00:00, 0.90,8.0
2021-07-08 01:00, 0.88,8.0
2021-07-08 02:00, 0.90,6.4
2021-07-08 03:00, 0.78,8.0
2021-07-08 04:00, 0.73,8.0
2021-07-08 05:00, 0.75,8.0
2021-07-08 06:00, 0.73,8.0
2021-07-08 07:00, 0.63,8.0
2021-07-08 08:00, 0.58,8.0
2021-07-08 09:00, 0.68,8.0
2021-07-08 10:00, 0.86,8.0
2021-07-08 11:00, 0.77,8.0
2021-07-08 12:00,,
2021-07-08 13:00, 0.93,8.0
2021-07-08 14:00, 0.94,3.6
2021-07-08 15:00, 0.82,4.0
2021-07-08 16:00, 0.96,4.0
2021-07-08 17:00,,
2021-07-08 18:00, 0.92,4.6
2021-07-08 19:00,,
2021-07-08 20:00, 0.85,4.6
2021-07-08 21:00, 1.02,4.6
2021-07-08 22:00, 0.83,4.6
2021-07-08 23:00, 1.00,4.6
2021-07-09 00:00, 0.82,4.6
2021-07-09 01:00, 0.89,6.4
2021-07-09 02:00, 0.87,4.6
2021-07-09 03:00, 0.88,4.6
2021-07-09 04:00, 0.79,6.4
2021-07-09 05:00, 0.76,5.3
2021-07-09 06:00, 0.82,5.3
2021-07-09 07:00, 0.79,5.3
2021-07-09 08:00, 0.72,5.3
2021-07-09 09:00, 0.68,5.3
2021-07-09 10:00, 0.58,5.3
2021-07-09 11:00, 0.68,5.3
2021-07-09 12:00, 0.78,5.3
2021-07-09 13:00, 0.67,5.3
2021-07-09 14:00, 0.69,6.4
2021-07-09 15:00, 0.60,6.4
2021-07-09 16:00, 0.66,6.4
2021-07-09 17:00, 0.67,6.4
2021-07-09 18:00, 0.73,4.6
2021-07-09 19:00, 0.93,4.6
2021-07-09 20:00, 1.07,4.6
2021-07-09 21:00, 1.12,4.6
2021-07-09 22:00, 1.48,5.3
2021-07-09 23:00, 1.65,5.3
2021-07-10 00:00, 1.70,6.4
2021-07-10 01:00, 2.09,8.0
2021-07-10 02:00,,
2021-07-10 03:00, 2.32,8.0
2021-07-10 04:00, 1.96,8.0
2021-07-10 05:00, 2.08,8.0
2021-07-10 06:00, 1.88,10.7
2021-07-10 07:00,,
2021-07-10 08:00, 1.81,10.7
2021-07-10 09:00, 1.60,10.7
2021-07-10 10:00, 1.70,10.7
2021-07-10 11:00, 1.31,8.0
2021-07-10 12:00, 1.62,8.0
2021-07-10 13:00, 1.68,8.0
2021-07-10 14:00, 1.59,8.0
2021-07-10 15:00, 1.64,8.0
2021-07-10 16:00, 1.68,8.0
2021-07-10 17:00, 1.42,8.0
2021-07-10 18:00, 1.40,8.0
2021-07-10 19:00, 1.25,8.0
2021-07-10 20:00, 1.29,10.7
2021-07-10 21:00, 1.20,8.0
2021-07-10 22:00, 1.18,8.0
2021-07-10 23:00, 1.13,10.7
2021-07-11 00:00, 1.09,8.0
2021-07-11 01:00, 1.08,8.0
2021-07-11 02:00, 0.99,8.0
2021-07-11 03:00, 0.89,8.0
2021-07-11 04:00, 0.95,8.0
2021-07-11 05:00, 1.03,8.0
2021-07-11 06:00, 0.94,8.0
2021-07-11 07:00, 0.96,8.0
2021-07-11 08:00, 1.01,8.0
2021-07-11 09:00, 1.03,8.0
2021-07-11 10:00, 0.99,8.0
2021-07-11 11:00, 0.98,8.0
2021-07-11 12:00, 1.10,8.0
2021-07-11 13:00, 1.08,8.0
2021-07-11 14:00, 1.12,8.0
2021-07-11 15:00, 1.01,8.0
2021-07-11 16:00, 0.89,8.0
2021-07-11 17:00, 0.82,10.7
2021-07-11 18:00, 0.78,10.7
2021-07-11 19:00, 0.79,10.7
2021-07-11 20:00, 0.76,10.7
2021-07-11 21:00, 0.84,8.0
2021-07-11 22:00, 0.82,8.0
2021-07-11 23:00, 0.93,8.0
2021-07-12 00:00, 1.19,8.0
2021-07-12 01:00, 1.23,8.0
2021-07-12 02:00, 1.37,8.0
2021-07-12 03:00, 1.52,8.0
2021-07-12 04:00, 1.34,8.0
2021-07-12 05:00, 1.17,6.4
2021-07-12 06:00, 1.02,8.0
2021-07-12 07:00, 0.90,8.0
2021-07-12 08:00, 0.83,8.0
2021-07-12 09:00, 0.76,5.3
2021-07-12 10:00, 0.76,8.0
2021-07-12 11:00, 0.72,8.0
2021-07-12 12:00, 0.69,8.0
2021-07-12 13:00, 0.72,8.0
2021-07-12 14:00, 0.79,8.0
2021-07-12 15:00, 0.84,8.0
2021-07-12 16:00, 0.87,8.0
2021-07-12 17:00, 0.85,8.0
2021-07-12 18:00, 0.84,8.0
2021-07-12 19:00, 0.77,8.0
2021-07-12 20:00, 0.73,8.0
2021-07-12 21:00, 0.86,8.0
2021-07-12 22:00, 0.80,8.0
2021-07-12 23:00, 0.78,8.0
2021-07-13 00:00, 0.68,8.0
2021-07-13 01:00, 0.71,8.0
2021-07-13 02:00, 0.68,8.0
2021-07-13 03:00, 0.74,8.0
2021-07-13 04:00,,
2021-07-13 05:00, 0.52,8.0
2021-07-13 06:00, 0.49,8.0
2021-07-13 07:00, 0.46,8.0
2021-07-13 08:00, 0.46,8.0
2021-07-13 09:00, 0.48,8.0
2021-07-13 10:00, 0.48,8.0
2021-07-13 11:00, 0.48,8.0
2021-07-13 12:00, 0.52,8.0
2021-07-13 13:00, 0.56,8.0
2021-07-13 14:00, 0.57,6.4
2021-07-13 15:00, 0.60,6.4
2021-07-13 16:00, 0.70,6.4
2021-07-13 17:00, 0.83,6.4
2021-07-13 18:00, 0.81,6.4
2021-07-13 19:00, 0.66,6.4
2021-07-13 20:00, 0.56,5.3
2021-07-13 21:00, 0.64,8.0
2021-07-13 22:00, 0.52,8.0
2021-07-13 23:00, 0.56,8.0
2021-07-14 00:00, 0.57,8.0
2021-07-14 01:00, 0.49,8.0
2021-07-14 02:00, 0.49,8.0
2021-07-14 03:00, 0.53,8.0
2021-07-14 04:00, 0.67,8.0
2021-07-14 05:00, 0.64,6.4
2021-07-14 06:00, 0.80,6.4
2021-07-14 07:00, 0.80,6.4
2021-07-14 08:00, 0.80,6.4
2021-07-14 09:00, 0.80,6.4
2021-07-14 10:00, 0.83,6.4
2021-07-14 11:00, 0.86,6.4
2021-07-14 12:00, 0.85,6.4
2021-07-14 13:00, 0.89,6.4
2021-07-14 14:00, 0.89,6.4
2021-07-14 15:00, 0.93,6.4
2021-07-14 16:00, 0.86,8.0
2021-07-14 17:00, 0.89,6.4
2021-07-14 18:00, 0.82,6.4
2021-07-14 19:00, 0.81,6.4
2021-07-14 20:00, 0.76,6.4
2021-07-14 21:00, 0.75,6.4
2021-07-14 22:00, 0.66,6.4
2021-07-14 23:00, 0.72,6.4
2021-07-15 00:00, 0.74,6.4
2021-07-15 01:00, 0.74,6.4
2021-07-15 02:00, 0.80,6.4
2021-07-15 03:00, 0.80,6.4
2021-07-15 04:00, 0.90,6.4
2021-07-15 05:00, 0.97,6.4
2021-07-15 06:00, 0.88,6.4
2021-07-15 07:00, 0.83,6.4
2021-07-15 08:00, 0.74,6.4
2021-07-15 09:00, 0.64,6.4
2021-07-15 10:00, 0.63,5.3
2021-07-15 11:00, 0.56,6.4
2021-07-15 12:00, 0.58,8.0
2021-07-15 13:00, 0.55,8.0
2021-07-15 14:00, 0.56,8.0
2021-07-15 15:00, 0.59,8.0
2021-07-15 16:00, 0.58,8.0
2021-07-15 17:00, 0.66,6.4
2021-07-15 18:00, 0.71,6.4
2021-07-15 19:00, 0.78,6.4
2021-07-15 20:00, 0.81,6.4
2021-07-15 21:00, 0.76,6.4
2021-07-15 22:00, 0.78,6.4
2021-07-15 23:00, 0.67,6.4
2021-07-16 00:00, 0.66,5.3
2021-07-16 01:00, 0.60,6.4
2021-07-16 02:00, 0.60,8.0
2021-07-16 03:00, 0.70,10.7
2021-07-16 04:00, 0.62,8.0
2021-07-16 05:00, 0.66,10.7
2021-07-16 06:00, 0.70,10.7
2021-07-16 07:00, 0.68,8.0
2021-07-16 08:00, 0.70,10.7
2021-07-16 09:00, 0.85,10.7
2021-07-16 10:00, 0.53,3.6
2021-07-16 11:00, 0.61,3.6
2021-07-16 12:00, 0.97,8.0
2021-07-16 13:00, 0.75,4.0
2021-07-16 14:00, 1.04,8.0
2021-07-16 15:00, 1.32,8.0
2021-07-16 16:00, 1.19,8.0
2021-07-16 17:00,,
2021-07-16 18:00, 0.97,4.6
2021-07-16 19:00, 0.98,4.6
2021-07-16 20:00, 1.05,5.3
2021-07-16 21:00, 0.97,4.6
2021-07-16 22:00, 0.79,5.3
2021-07-16 23:00, 0.75,4.6
2021-07-17 00:00, 0.84,4.6
2021-07-17 01:00, 0.86,8.0
2021-07-17 02:00, 0.83,8.0
2021-07-17 03:00, 0.86,8.0
2021-07-17 04:00, 0.88,8.0
2021-07-17 05:00, 0.89,8.0
2021-07-17 06:00, 0.87,8.0
2021-07-17 07:00, 0.83,8.0
2021-07-17 08:00, 0.76,8.0
2021-07-17 09:00, 0.74,6.4
2021-07-17 10:00, 0.73,8.0
2021-07-17 11:00, 0.70,5.3
2021-07-17 12:00, 0.64,5.3
2021-07-17 13:00, 0.63,8.0
2021-07-17 14:00, 0.59,8.0
2021-07-17 15:00, 0.60,8.0
2021-07-17 16:00, 0.58,8.0
2021-07-17 17:00, 0.62,8.0
2021-07-17 18:00, 0.55,8.0
2021-07-17 19:00, 0.59,8.0
2021-07-17 20:00, 0.58,8.0
2021-07-17 21:00, 0.58,8.0
2021-07-17 22:00, 0.58,8.0
2021-07-17 23:00, 0.55,8.0
2021-07-18 00:00, 0.56,8.0
2021-07-18 01:00, 0.48,8.0
2021-07-18 02:00, 0.56,8.0
2021-07-18 03:00, 0.54,8.0
2021-07-18 04:00, 0.55,8.0
2021-07-18 05:00, 0.57,8.0
2021-07-18 06:00, 0.52,8.0
2021-07-18 07:00, 0.56,8.0
2021-07-18 08:00, 0.48,8.0
2021-07-18 09:00, 0.47,8.0
2021-07-18 10:00, 0.44,8.0
2021-07-18 11:00, 0.40,8.0
2021-07-18 12:00, 0.42,8.0
2021-07-18 13:00, 0.49,8.0
2021-07-18 14:00, 0.59,2.5
2021-07-18 15:00, 0.69,2.7
2021-07-18 16:00,,
2021-07-18 17:00, 0.78,8.0
2021-07-18 18:00, 0.61,3.2
2021-07-18 19:00,,
2021-07-18 20:00, 0.78,6.4
2021-07-18 21:00, 0.61,4.0
2021-07-18 22:00, 0.67,6.4
2021-07-18 23:00, 0.53,6.4
2021-07-19 00:00, 0.55,6.4
2021-07-19 01:00, 0.46,6.4
2021-07-19 02:00, 0.48,10.7
2021-07-19 03:00, 0.46,8.0
2021-07-19 04:00, 0.49,8.0
2021-07-19 05:00, 0.48,8.0
2021-07-19 06:00, 0.45,8.0
2021-07-19 07:00, 0.49,8.0
2021-07-19 08:00, 0.51,8.0
2021-07-19 09:00, 0.49,5.3
2021-07-19 10:00, 0.50,8.0
2021-07-19 11:00, 0.53,6.4
2021-07-19 12:00, 0.55,5.3
2021-07-19 13:00, 0.49,4.6
2021-07-19 14:00, 0.55,4.6
2021-07-19 15:00, 0.55,6.4
2021-07-19 16:00, 0.50,5.3
2021-07-19 17:00, 0.48,8.0
2021-07-19 18:00, 0.48,8.0
2021-07-19 19:00, 0.42,6.4
2021-07-19 20:00, 0.43,6.4
2021-07-19 21:00, 0.43,6.4
2021-07-19 22:00, 0.43,6.4
2021-07-19 23:00, 0.51,6.4
2021-07-20 00:00, 0.48,6.4
2021-07-20 01:00, 0.54,6.4
2021-07-20 02:00, 0.55,6.4
2021-07-20 03:00, 0.54,6.4
2021-07-20 04:00, 0.57,5.3
2021-07-20 05:00,,
2021-07-20 06:00, 0.58,6.4
2021-07-20 07:00, 0.58,6.4
2021-07-20 08:00, 0.56,6.4
2021-07-20 09:00, 0.57,6.4
2021-07-20 10:00, 0.60,6.4
2021-07-20 11:00, 0.59,6.4
2021-07-20 12:00, 0.59,6.4
2021-07-20 13:00, 0.58,6.4
2021-07-20 14:00, 0.54,8.0
2021-07-20 15:00, 0.52,8.0
2021-07-20 16:00, 0.53,8.0
2021-07-20 17:00, 0.49,8.0
2021-07-20 18:00, 0.52,8.0
2021-07-20 19:00, 0.58,8.0
2021-07-20 20:00, 0.57,6.4
2021-07-20 21:00, 0.57,6.4
2021-07-20 22:00, 0.69,6.4
2021-07-20 23:00, 0.80,6.4
2021-07-21 00:00, 0.83,6.4
2021-07-21 01:00, 0.80,6.4
2021-07-21 02:00, 0.72,6.4
2021-07-21 03:00, 0.66,8.0
2021-07-21 04:00, 0.55,8.0
2021-07-21 05:00, 0.52,8.0
2021-07-21 06:00, 0.52,8.0
2021-07-21 07:00, 0.56,8.0
2021-07-21 08:00, 0.51,6.4
2021-07-21 09:00, 0.52,8.0
2021-07-21 10:00, 0.53,6.4
2021-07-21 11:00,,
2021-07-21 12:00, 0.62,8.0
2021-07-21 13:00, 0.66,6.4
2021-07-21 14:00, 0.56,6.4
2021-07-21 15:00, 0.56,6.4
2021-07-21 16:00, 0.51,8.0
2021-07-21 17:00, 0.52,6.4
2021-07-21 18:00, 0.49,6.4